LOT2142 LIRF-EPKK

Flight info

Callsign LOT2142
Flight time N/A
Altitude 37000
Route TIBER DCT INTUD DCT NIKOL DCT ALIVO DCT LEDVA DCT NETIR
Aircraft B738/M-SDE2E3FGHIRWXY/LB1

Departure

Time 2026-05-04 08:50
Airport Rome–Fiumicino Leonardo da Vinci International Airport (LIRF)

Arrival

Time N/A
Airport Kraków John Paul II International Airport (EPKK)
Time Latitude Longitude Altitude Speed Heading
2026-05-04 08:28 41.79621 12.25960 22 ft 0 kts 295°
2026-05-04 08:41 41.79621 12.25961 22 ft 1 kts 295°
2026-05-04 08:41 41.79615 12.25976 22 ft 2 kts 299°
2026-05-04 08:42 41.79604 12.25996 22 ft 3 kts 318°
2026-05-04 08:42 41.79587 12.26010 22 ft 3 kts 339°
2026-05-04 08:42 41.79580 12.26013 22 ft 0 kts 351°
2026-05-04 08:46 41.79858 12.26009 22 ft 18 kts 295°
2026-05-04 08:46 41.79905 12.25876 22 ft 10 kts 306°
2026-05-04 08:46 41.79973 12.25886 22 ft 14 kts 24°
2026-05-04 08:46 41.80090 12.25956 22 ft 22 kts 25°
2026-05-04 08:47 41.80231 12.26044 22 ft 22 kts 24°
2026-05-04 08:47 41.80368 12.26128 22 ft 21 kts 25°
2026-05-04 08:47 41.80489 12.26187 22 ft 18 kts 25°
2026-05-04 08:47 41.80550 12.26319 22 ft 18 kts 70°
2026-05-04 08:48 41.80601 12.26502 22 ft 23 kts 70°
2026-05-04 08:48 41.80655 12.26700 22 ft 22 kts 70°
2026-05-04 08:48 41.80707 12.26889 22 ft 21 kts 69°
2026-05-04 08:48 41.80756 12.27032 22 ft 13 kts 34°
2026-05-04 08:49 41.80829 12.27030 22 ft 10 kts 339°
2026-05-04 08:50 41.80111 12.23809 506 ft 171 kts 250°
2026-05-04 08:50 41.79733 12.22346 1534 ft 161 kts 249°
2026-05-04 08:51 41.79371 12.20896 2234 ft 171 kts 256°
2026-05-04 08:51 41.79200 12.19198 2645 ft 197 kts 264°
2026-05-04 08:51 41.79146 12.17304 3263 ft 207 kts 268°
2026-05-04 08:51 41.78890 12.15412 4063 ft 208 kts 244°
2026-05-04 08:52 41.78042 12.13856 4875 ft 208 kts 227°
2026-05-04 08:52 41.77034 12.12449 5663 ft 210 kts 223°
2026-05-04 08:52 41.75961 12.11109 6441 ft 212 kts 221°
2026-05-04 08:52 41.74863 12.09761 7193 ft 216 kts 221°
2026-05-04 08:53 41.73755 12.08394 7952 ft 218 kts 221°
2026-05-04 08:54 41.62901 12.05101 11698 ft 301 kts 153°
2026-05-04 08:55 41.61307 12.06955 12331 ft 310 kts 125°
2026-05-04 08:55 41.60498 12.09633 13099 ft 315 kts 105°
2026-05-04 08:55 41.59988 12.12505 13840 ft 320 kts 103°
2026-05-04 08:55 41.59541 12.15442 14561 ft 325 kts 102°
2026-05-04 08:57 41.61600 12.35635 19258 ft 350 kts 41°
2026-05-04 09:01 41.89038 12.59083 26387 ft 379 kts 356°
2026-05-04 09:01 41.91683 12.59086 26861 ft 382 kts 357°
2026-05-04 09:01 41.94354 12.59130 27308 ft 385 kts 358°
2026-05-04 09:01 41.97037 12.59188 27750 ft 387 kts 358°
2026-05-04 09:02 41.99745 12.59250 28181 ft 390 kts 358°
2026-05-04 09:02 42.02466 12.59312 28590 ft 392 kts 357°
2026-05-04 09:02 42.05200 12.59373 28997 ft 395 kts 358°
2026-05-04 09:02 42.07951 12.59452 29400 ft 397 kts 358°
2026-05-04 09:03 42.10726 12.59527 29777 ft 400 kts 358°
2026-05-04 09:03 42.13512 12.59601 30159 ft 401 kts 357°
2026-05-04 09:03 42.16310 12.59675 30521 ft 404 kts 357°
2026-05-04 09:03 42.19136 12.59749 30852 ft 407 kts 358°
2026-05-04 09:04 42.21968 12.59823 31198 ft 409 kts 358°
2026-05-04 09:04 42.24814 12.59898 31546 ft 410 kts 358°
2026-05-04 09:04 42.27684 12.60057 31854 ft 414 kts
2026-05-04 09:04 42.30563 12.60372 32152 ft 417 kts
2026-05-04 09:05 42.33492 12.60703 32253 ft 425 kts
2026-05-04 09:05 42.36450 12.61008 32562 ft 426 kts
2026-05-04 09:05 42.39409 12.61302 32884 ft 428 kts
2026-05-04 09:05 42.42347 12.61589 33170 ft 430 kts
2026-05-04 09:06 42.45325 12.62115 33458 ft 434 kts
2026-05-04 09:07 42.65353 12.72848 35237 ft 450 kts 21°
2026-05-04 09:08 42.68227 12.74564 35451 ft 452 kts 20°
2026-05-04 09:08 42.70138 12.75705 35602 ft 453 kts 21°
2026-05-04 09:08 42.73022 12.77429 35880 ft 452 kts 20°
2026-05-04 09:08 42.75903 12.79152 36170 ft 452 kts 20°
2026-05-04 09:09 42.78776 12.80869 36453 ft 451 kts 20°
2026-05-04 09:09 42.81661 12.82572 36717 ft 451 kts 20°
2026-05-04 09:09 42.84536 12.84276 36990 ft 451 kts 20°
2026-05-04 09:09 42.87406 12.85984 37185 ft 452 kts 20°
2026-05-04 09:10 42.90308 12.87715 37201 ft 454 kts 20°
2026-05-04 09:10 42.96076 12.91167 37200 ft 451 kts 20°
2026-05-04 09:11 43.01811 12.94610 37196 ft 450 kts 20°
2026-05-04 09:11 43.07555 12.98067 37193 ft 451 kts 21°
2026-05-04 09:12 43.13298 13.01530 37182 ft 451 kts 21°
2026-05-04 09:14 43.36193 13.15411 37156 ft 450 kts 21°
2026-05-04 09:14 43.41932 13.18909 37151 ft 450 kts 21°
2026-05-04 09:15 43.47654 13.22404 37147 ft 450 kts 21°
2026-05-04 09:15 43.53373 13.25904 37144 ft 450 kts 21°
2026-05-04 09:17 43.79075 13.41726 37142 ft 449 kts 21°
2026-05-04 09:18 43.84790 13.45264 37142 ft 449 kts 21°
2026-05-04 09:18 43.90483 13.48797 37142 ft 448 kts 21°
2026-05-04 09:19 43.96156 13.52301 37142 ft 448 kts 21°
2026-05-04 09:19 44.01844 13.55841 37143 ft 448 kts 21°
2026-05-04 09:20 44.07534 13.59403 37143 ft 448 kts 21°
2026-05-04 09:20 44.13212 13.62965 37144 ft 448 kts 21°
2026-05-04 09:21 44.18897 13.66536 37145 ft 448 kts 21°
2026-05-04 09:21 44.24519 13.70281 37145 ft 449 kts 26°
2026-05-04 09:22 44.29953 13.74615 37145 ft 450 kts 27°
2026-05-04 09:22 44.35337 13.78966 37145 ft 450 kts 27°
2026-05-04 09:23 44.40767 13.83319 37145 ft 450 kts 27°
2026-05-04 09:23 44.46202 13.87667 37143 ft 450 kts 27°
2026-05-04 09:25 44.67956 14.05003 37130 ft 448 kts 27°
2026-05-04 09:26 44.73367 14.09347 37132 ft 448 kts 27°
2026-05-04 09:26 44.78770 14.13697 37133 ft 448 kts 27°
2026-05-04 09:27 44.84177 14.18060 37134 ft 447 kts 27°
2026-05-04 09:27 44.89573 14.22423 37135 ft 447 kts 27°
2026-05-04 09:28 44.94973 14.26800 37135 ft 447 kts 27°
2026-05-04 09:28 45.00208 14.31052 37136 ft 447 kts 27°
2026-05-04 09:29 45.05604 14.35445 37138 ft 447 kts 27°
2026-05-04 09:29 45.10989 14.39839 37139 ft 447 kts 27°
2026-05-04 09:30 45.16343 14.44216 37142 ft 447 kts 27°
2026-05-04 09:30 45.21725 14.48627 37141 ft 447 kts 27°
2026-05-04 09:31 45.27120 14.53030 37141 ft 447 kts 27°
2026-05-04 09:31 45.32501 14.57449 37141 ft 447 kts 27°
2026-05-04 09:32 45.37876 14.61894 37142 ft 447 kts 27°
2026-05-04 09:34 45.59722 14.78473 37142 ft 443 kts 20°
2026-05-04 09:34 45.65417 14.81835 37143 ft 443 kts 20°
2026-05-04 09:35 45.71106 14.85245 37151 ft 443 kts 20°
2026-05-04 09:35 45.76786 14.88676 37149 ft 443 kts 20°
2026-05-04 09:37 45.99426 15.02379 37136 ft 442 kts 20°
2026-05-04 09:38 46.05086 15.05832 37135 ft 443 kts 20°
2026-05-04 09:38 46.10765 15.09307 37132 ft 442 kts 20°
2026-05-04 09:39 46.16433 15.12785 37129 ft 442 kts 21°
2026-05-04 09:39 46.22094 15.16266 37126 ft 442 kts 21°
2026-05-04 09:40 46.27747 15.19751 37118 ft 442 kts 21°
2026-05-04 09:40 46.33399 15.23243 37112 ft 441 kts 21°
2026-05-04 09:42 46.55938 15.37247 37087 ft 441 kts 21°
2026-05-04 09:43 46.61584 15.40775 37086 ft 441 kts 21°
2026-05-04 09:43 46.67228 15.44309 37087 ft 442 kts 21°
2026-05-04 09:44 46.72877 15.47855 37085 ft 442 kts 21°
2026-05-04 09:46 46.95384 15.62064 37083 ft 443 kts 21°
2026-05-04 09:46 47.01069 15.65674 37083 ft 443 kts 21°
2026-05-04 09:47 47.06728 15.69275 37083 ft 443 kts 21°
2026-05-04 09:49 47.29375 15.83772 37083 ft 444 kts 21°
2026-05-04 09:51 47.49181 15.96562 37079 ft 445 kts 21°
2026-05-04 09:51 47.54848 16.00242 37077 ft 445 kts 21°
2026-05-04 09:52 47.60509 16.03926 37075 ft 444 kts 21°
2026-05-04 09:52 47.66169 16.07618 37071 ft 445 kts 21°
2026-05-04 09:53 47.71834 16.11322 37068 ft 445 kts 21°
2026-05-04 09:53 47.77497 16.15033 37066 ft 445 kts 21°
2026-05-04 09:54 47.83164 16.18757 37063 ft 445 kts 21°
2026-05-04 09:54 47.88827 16.22486 37061 ft 445 kts 21°
2026-05-04 09:55 47.94457 16.26203 37059 ft 445 kts 21°
2026-05-04 09:55 48.00125 16.29954 37057 ft 445 kts 21°
2026-05-04 09:56 48.05782 16.33706 37055 ft 446 kts 21°
2026-05-04 09:56 48.10497 16.36841 37053 ft 445 kts 21°
2026-05-04 09:57 48.15708 16.40312 37055 ft 445 kts 21°
2026-05-04 09:57 48.21373 16.44095 37053 ft 445 kts 21°
2026-05-04 09:58 48.27034 16.47885 37053 ft 445 kts 21°
2026-05-04 09:58 48.32691 16.51681 37054 ft 445 kts 22°
2026-05-04 10:00 48.55326 16.66933 37061 ft 446 kts 22°
2026-05-04 10:02 48.74359 16.82335 37070 ft 452 kts 44°
2026-05-04 10:04 48.88115 17.08432 37070 ft 452 kts 51°
2026-05-04 10:04 48.91974 17.15979 37074 ft 452 kts 51°
2026-05-04 10:05 48.95859 17.23504 37080 ft 452 kts 50°
2026-05-04 10:05 48.99752 17.31010 37082 ft 452 kts 50°
2026-05-04 10:06 49.03629 17.38565 37082 ft 452 kts 50°
2026-05-04 10:06 49.07492 17.46138 37082 ft 452 kts 51°
2026-05-04 10:08 49.20936 17.72700 37081 ft 452 kts 51°
2026-05-04 10:08 49.24775 17.80336 36984 ft 455 kts 51°
2026-05-04 10:09 49.26702 17.84179 36621 ft 454 kts 51°
2026-05-04 10:09 49.28616 17.87999 36025 ft 452 kts 51°
2026-05-04 10:09 49.30539 17.91845 35358 ft 454 kts 51°
2026-05-04 10:09 49.32457 17.95685 34688 ft 455 kts 51°
2026-05-04 10:10 49.34382 17.99544 34007 ft 456 kts 51°
2026-05-04 10:10 49.36311 18.03418 33314 ft 457 kts 51°
2026-05-04 10:10 49.38242 18.07302 32608 ft 458 kts 51°
2026-05-04 10:10 49.40175 18.11194 31929 ft 458 kts 51°
2026-05-04 10:11 49.42096 18.15067 31402 ft 453 kts 51°
2026-05-04 10:11 49.43970 18.18854 30888 ft 449 kts 51°
2026-05-04 10:11 49.45852 18.22662 30374 ft 445 kts 51°
2026-05-04 10:11 49.47719 18.26442 29869 ft 441 kts 51°
2026-05-04 10:12 49.49565 18.30188 29374 ft 438 kts 51°
2026-05-04 10:12 49.51414 18.33881 28883 ft 434 kts 51°
2026-05-04 10:12 49.53241 18.37557 28394 ft 431 kts 51°
2026-05-04 10:12 49.55049 18.41232 27906 ft 427 kts 52°
2026-05-04 10:13 49.56829 18.44872 27420 ft 424 kts 52°
2026-05-04 10:13 49.58592 18.48489 26937 ft 421 kts 52°
2026-05-04 10:13 49.60342 18.52088 26456 ft 418 kts 52°
2026-05-04 10:13 49.62077 18.55660 25976 ft 414 kts 52°
2026-05-04 10:14 49.63777 18.59162 25505 ft 411 kts 52°
2026-05-04 10:14 49.65507 18.62731 25022 ft 408 kts 52°
2026-05-04 10:16 49.82109 18.75600 21664 ft 387 kts 12°
2026-05-04 10:16 49.84718 18.76565 21190 ft 385 kts 12°
2026-05-04 10:16 49.87290 18.77856 20705 ft 384 kts 25°
2026-05-04 10:16 49.89452 18.80164 20253 ft 383 kts 43°
2026-05-04 10:17 49.91065 18.83408 19854 ft 380 kts 61°
2026-05-04 10:17 49.91973 18.87247 19271 ft 380 kts 79°
2026-05-04 10:19 49.89911 19.13495 17377 ft 337 kts 98°
2026-05-04 10:19 49.89674 19.17104 17024 ft 335 kts 97°
2026-05-04 10:19 49.89455 19.20696 16672 ft 334 kts 97°
2026-05-04 10:19 49.89249 19.24272 16320 ft 332 kts 95°
2026-05-04 10:20 49.89355 19.27852 15959 ft 333 kts 82°
2026-05-04 10:20 49.89938 19.31314 15599 ft 333 kts 72°
2026-05-04 10:20 49.90808 19.34639 15241 ft 332 kts 67°
2026-05-04 10:20 49.91761 19.37875 15014 ft 327 kts 66°
2026-05-04 10:21 49.92646 19.40975 14787 ft 311 kts 67°
2026-05-04 10:21 49.93494 19.44005 14431 ft 301 kts 67°
2026-05-04 10:21 49.94316 19.46956 14078 ft 296 kts 68°
2026-05-04 10:21 49.95002 19.49949 13626 ft 293 kts 75°
2026-05-04 10:22 49.95856 19.56140 12529 ft 293 kts 80°
2026-05-04 10:22 49.96255 19.59246 11977 ft 293 kts 80°
2026-05-04 10:22 49.96652 19.62345 11430 ft 293 kts 79°
2026-05-04 10:23 49.97076 19.65442 10879 ft 293 kts 79°
2026-05-04 10:23 49.97497 19.68536 10326 ft 292 kts 79°
2026-05-04 10:25 50.00337 19.89503 7143 ft 271 kts 78°
2026-05-04 10:25 50.00724 19.92366 6793 ft 270 kts 79°
2026-05-04 10:25 50.01109 19.95216 6440 ft 269 kts 79°
2026-05-04 10:25 50.01490 19.98051 6113 ft 267 kts 79°
2026-05-04 10:26 50.01868 20.00865 5814 ft 265 kts 78°
2026-05-04 10:26 50.02248 20.03641 5508 ft 258 kts 78°
2026-05-04 10:26 50.02606 20.06286 5194 ft 242 kts 78°
2026-05-04 10:26 50.03250 20.08639 4887 ft 235 kts 52°
2026-05-04 10:27 50.04460 20.10254 4679 ft 225 kts 31°
2026-05-04 10:27 50.05888 20.11027 4499 ft 214 kts
2026-05-04 10:27 50.07323 20.10847 4384 ft 207 kts 348°
2026-05-04 10:27 50.08723 20.10388 4284 ft 204 kts 346°
2026-05-04 10:28 50.10079 20.09794 4192 ft 201 kts 333°